Погода в Перигё

Франция     45°11′00″N   0°43′07″E
темп.,
°C
ветер,
м/с
пор.,
м/с
влажн.,
%
обл.,
%
осадки,
мм/ч
давл.,
гПа
погр.,
м
24 июня, чт
чт2423:00+14ссз229451 0.1 102016
02:00+13сз2298100 0.6 102042
05:00+13ссз239997 0.1 1020101
08:00+14ссз239797 0.1 1021298
11:00+15ссз2392100 0.1 1022345
14:00+20зсз336127 0.1 10221202
17:00+20сз455959 0.2 10221232
20:00+19сз45610 0.3 1022720
25 июня, пт
пт2523:00+13зсз25923 0.0 102487
02:00+11сз11955 0.0 102411
05:00+10ссз11945 0.0 102310
08:00+13зсз01861 0.0 1023104
11:00+19зюз11595 0.0 1022862
14:00+23з22425 0.0 10211619
17:00+24зсз32395 0.0 10191811
20:00+21сз34565 0.0 1018338
26 июня, сб
сб2623:00+14с22865 0.0 101922
02:00+13всв119293 0.0 101810
05:00+12в1193100 0.0 101810
08:00+15вюв128499 0.0 1017124
11:00+22ю125586 0.0 1016726
14:00+24юз2354100 0.4 10151080
17:00+25з3453100 0.0 10141560
20:00+22ссз447095 0.0 1013466
27 июня, вс
вс2723:00+16сз2496100 1.9 101494
02:00+16з1198100 6.3 101329
05:00+16зсз1199100 3.9 101246
08:00+16з2299100 7.1 1012167
11:00+16з2395100 3.9 1013385
14:00+18з2383100 4.3 1014691
17:00+16зюз3597100 3.7 1014380
20:00+15з3697100 6.5 1014383
28 июня, пн
пн2823:00+13ююз1299100 5.0 101548
02:00+13зюз3699100 9.9 1015381
05:00+12юз3797100 2.2 1015357
08:00+12ю259755 2.9 1017282
11:00+16ююз578259 0.9 10171080
14:00+20ююз685396 1.4 10161903
17:00+16юз599251 1.6 1017765
20:00+15зюз4109179 3.1 1018998